Flag Weather past 2 weeks in Brønnøysund, Norway

Now
45 °F

Mostly cloudy.


Feels Like: 39 °F
Forecast: 41 / 42 °F
Wind: 12 mph from Southwest

Location: Bronnoysund / Bronnoy

Current Time: Nov 26, 2014 at 2:54:20 AM

Latest Report: Nov 26, 2014 at 2:20 AM


Visibility: N/A

Pressure: 30.15 "Hg

Humidity: 81%

Dew point: 39 °F

Location of BrønnøysundLocation

Historic Weather in Brønnøysund — Graph

°F

Brønnøysund temperature yesterday

Maximum temperature yesterday: 45 °F (at 1:20 PM)
Minimum temperature yesterday: 37 °F (at 12:50 AM)
Average temperature yesterday: 42 °F

Past Weeks' High & Low Weather Summary

 TemperatureHumidityPressure
High50 °F (Nov 17, 12:20 PM)100% (Nov 19, 9:50 PM)30.48 "Hg (Nov 19, 9:50 PM)
Low30 °F (Nov 19, 8:50 AM)43% (Nov 17, 12:20 PM)29.59 "Hg (Nov 11, 1:20 AM)
Average39 °F76%30.16 "Hg
* Reported Nov 11 1:20 AM — Nov 26 1:50 AM, Brønnøysund, Weather by CustomWeather, © 2014

Note: Actual official high and low records may vary slightly from our data, if they occured in-between our weather recording intervals... More about our weather records

Advertising

Brønnøysund weather history for previous 24 hours

 ConditionsComfort  
Time TempWeatherWind HumidityBarometerVisibility
1:50 AM
Nov 26
43 °FOvercast.10 mph87%30.15 "HgN/A
1:20 AM43 °FMostly cloudy.12 mph87%30.15 "HgN/A
12:50 AM45 °FOvercast.13 mph76%30.12 "HgN/A
12:20 AM41 °FPartly cloudy.10 mph87%30.12 "HgN/A
11:50 PM
Nov 25
41 °FPassing clouds.12 mph87%30.12 "HgN/A
11:20 PM41 °FPartly cloudy.8 mph87%30.12 "HgN/A
10:50 PM43 °FPassing clouds.12 mph76%30.12 "HgN/A
9:50 PM45 °FPartly cloudy.12 mph76%30.09 "HgN/A
8:50 PM45 °FPassing clouds.9 mph71%30.09 "HgN/A
7:50 PM45 °FPartly cloudy.14 mph76%30.07 "HgN/A
6:50 PM45 °FPassing clouds.12 mph81%30.04 "HgN/A
5:50 PM45 °FPartly cloudy.14 mph87%29.98 "HgN/A
4:50 PM45 °FPartly cloudy.16 mph93%29.92 "HgN/A
4:20 PM45 °FPassing clouds.12 mph93%29.89 "HgN/A
3:50 PM45 °FPassing clouds.15 mph93%29.89 "Hg3 mi
2:50 PM43 °FPassing clouds.12 mph93%29.86 "Hg3 mi
1:50 PM45 °FDrizzle. Partly sunny.16 mph87%29.89 "Hg3 mi
1:20 PM45 °FDrizzle. Partly sunny.18 mph87%29.89 "Hg4 mi
12:20 PM43 °FDrizzle. Partly sunny.13 mph87%29.89 "Hg3 mi
11:50 AM43 °FDrizzle. Broken clouds.16 mph87%29.89 "HgN/A
10:50 AM43 °FScattered showers. Broken clouds.14 mph93%29.86 "HgN/A
10:20 AM43 °FMixture of precip. Broken clouds.13 mph87%29.86 "HgN/A
9:50 AM43 °FScattered showers. Broken clouds.13 mph87%29.86 "HgN/A
8:50 AM43 °FScattered showers. Partly cloudy.13 mph87%29.86 "HgN/A
8:20 AM43 °FPartly cloudy.15 mph93%29.86 "HgN/A
7:50 AM43 °FPartly cloudy.12 mph93%29.86 "HgN/A
7:20 AM43 °FPartly cloudy.15 mph93%29.83 "Hg4 mi
6:50 AM41 °FScattered showers. Partly cloudy.9 mph93%29.83 "HgN/A
5:50 AM41 °FLight rain. Partly cloudy.8 mph93%29.83 "HgN/A
5:20 AM41 °FMostly cloudy.12 mph93%29.83 "HgN/A
4:50 AM41 °FOvercast.12 mph87%29.83 "HgN/A
4:20 AM41 °FOvercast.13 mph87%29.83 "HgN/A
3:50 AM39 °FMostly cloudy.10 mph93%29.80 "HgN/A
3:20 AM39 °FMostly cloudy.8 mph87%29.80 "HgN/A
2:50 AM37 °FOvercast.6 mph93%29.80 "HgN/A
2:20 AM37 °FMostly cloudy.6 mph93%29.80 "HgN/A
Weather by CustomWeather, © 2014

See weather overviewHow to use our weather pages